STARLINK-35782, 67182

Orbit data source: Space-Track

STARLINK-35782, 67182 is a payload satellite owned by SpaceX/Seattle (US) in LEO that was launched on Wed, 17 Dec 2025 UTC via an FALCON 9 launch vehicle from the Air Force Eastern Test Range (AFETR). Payload-class satellites include a variety of spacecraft equipped with specific instruments for various scientific and technological missions. These include communications satellites like Starlink; space stations such as the ISS; scientific satellites like the Hubble; Earth observation satellites from companies like Planet Labs, Umbra, and HawkEye 360; GPS; miniature CubeSats for education and research; and military/defense satellites.

Loading next visibility...
Identifier
67182, 2025-303V
Orbit
LEO
Country
Flag of USUS
Related business
Manufacturer
SpaceX/Seattle
Mission
Operational Commercial Communications
Bus & Motor
STARLINK V2MO, Unknown motor
Mass
575 kg wet, ~530 kg dry
Launch date (UTC)
2025-12-17 (6 months ago)
Launch vehicle
FALCON 9
Launch site
Air Force Eastern Test Range (AFETR)
Object type
Payload
Rocket body
Debris
Shape & HBR
Box + 2 Pan, 17.7 m
Radar Cross Section
36.964 m², Large (>1 m²)

Expand to show TLE details & history
Last TLE update: 16 hours ago

TLE from 16 hours ago
0 STARLINK-35782
1 67182U 25303V   26171.17878778  .00009726  00000-0  36231-3 0  9999
2 67182  43.0035  91.5513 0001960 263.0523  97.0105 15.27595991 28412
Epoch: 2026-06-20T04:17Z
TLE epoch observation values (Epoch: 2026-06-20T04:17:27.264Z)
Latitude
-0.00006°
Longitude
118.7905°
Altitude
482.941 km
Speed
7.626 km/s
True Right ascension
06h 06m 12s
True Declination
0° 00' 00"
Sunlit
Object was in daylight at epoch
Visualization orbit readout
Latitude
Unknown
Longitude
Unknown
Altitude
Unknown
Speed
Unknown
Apparent Right ascension
Unknown
Apparent Declination
Unknown
Sunlit
N/A
Visualization observer readout
Local Sidereal Time
07:13:54
Azimuth
Unknown
Elevation
Unknown
Doppler factor
Unknown
Orbital elements
Apogee altitude
486.291 km
Perigee altitude
483.601 km
Semi-major axis
6,863.083 km
Eccentricity
0.0002
Inclination
43.0035°
RAAN
91.5513°
Arg. of periapsis
263.0523°
True anomaly
97.03279°
Mean anomaly
97.0105°
Eccentric anomaly
97.02165°
Mean motion
3.81737 °/min
Orbital period
94.31 mins
BSTAR
0.00036231
Loading maneuver chart data...
Computing Atmospheric mass density...
Loading historical data...
Loading historical data...
Loading historical data...
Loading historical data...
Loading historical data...
Loading historical data...
Loading historical data...

Documentation

Showing up to 5 results
|